• Processing (Info)

  • MPEC 2000-W37 : 2000 WN10

    The following Minor Planet Electronic Circular may be linked-to from your own Web pages, but must not otherwise be redistributed electronically.

    A form allowing access to any MPEC is at the bottom of this page.


    Read MPEC 2000-W36 Read MPEC 2000-W38


    M.P.E.C. 2000-W37                                Issued 2000 Nov. 24, 21:50 UT
    
         The Minor Planet Electronic Circulars contain information on unusual
             minor planets and routine data on comets.  They are published
       on behalf of Commission 20 of the International Astronomical Union by the
              Minor Planet Center, Smithsonian Astrophysical Observatory,
                              Cambridge, MA 02138, U.S.A.
    
                 Prepared using the Tamkin Foundation Computer Network
    
                                  MPC@CFA.HARVARD.EDU
              URL http://cfa-www.harvard.edu/iau/mpc.html  ISSN 1523-6714
    
                                       2000 WN10
    
    Observations:
         K00W10N* C2000 11 20.36985 06 01 16.23 +29 23 44.6          18.5        704
         K00W10N  C2000 11 20.38602 06 01 10.19 +29 25 07.5          18.4        704
         K00W10N  C2000 11 20.40094 06 01 04.68 +29 26 23.1          18.4        704
         K00W10N  C2000 11 20.41579 06 00 59.07 +29 27 37.1          18.0        704
         K00W10N  C2000 11 20.43093 06 00 53.43 +29 28 53.9          18.3        704
         K00W10N  C2000 11 21.28588 05 55 45.72 +30 40 21.1          17.7        704
         K00W10N  C2000 11 21.30051 05 55 40.16 +30 41 34.1          18.6        704
         K00W10N  C2000 11 21.32973 05 55 28.93 +30 44 00.9          17.9        704
         K00W10N  C2000 11 21.34434 05 55 23.28 +30 45 14.1          17.7        704
         K00W10N  C2000 11 22.94213 05 45 19.09 +32 54 31.6          17.3 R      046
         K00W10N  C2000 11 22.94291 05 45 18.78 +32 54 35.2                      046
         K00W10N  C2000 11 22.94359 05 45 18.50 +32 54 39.2                      046
         K00W10N  C2000 11 22.94420 05 45 18.24 +32 54 41.5                      046
         K00W10N  C2000 11 22.94481 05 45 18.05 +32 54 44.3                      046
         K00W10N  C2000 11 22.94543 05 45 17.74 +32 54 46.9          17.1 R      046
         K00W10N  C2000 11 23.24190 05 43 23.20 +33 18 16.5          19.0 R      853
         K00W10N  C2000 11 23.24351 05 43 22.54 +33 18 23.9          18.7 R      853
         K00W10N  C2000 11 23.24413 05 43 22.29 +33 18 26.9          18.5 R      853
         K00W10N  C2000 11 24.29704 05 36 23.14 +34 39 27.2          19.1 V      918
         K00W10N  C2000 11 24.30099 05 36 21.42 +34 39 46.0                      918
         K00W10N  C2000 11 24.30929 05 36 17.98 +34 40 24.0                      918
         K00W10N  C2000 11 24.32204 05 36 12.59 +34 41 21.6          19.0 V      918
         K00W10N  C2000 11 24.33071 05 36 09.86 +34 42 07.2                      670
    
    Observer details:
    046 Klet.  Observer M. Tichy.  0.57-m f/5.2 reflector + CCD.
    670 Camarillo.  Observer J. E. Rogers.  0.30-m f/6.7 Helin Telescope + CCD.
    704 Lincoln Laboratory ETS, New Mexico.  Observers M. Blythe, F. Shelly,
        M. Bezpalko, M. Elowitz, R. Huber, L. Manguso.  Measurers J. Stuart,
        R. Sayer, J. B. Evans, H. Viggh.  1.0-m f/2.15 reflector + CCD.
    853 Biosphere 2 Observatory.  Observer G. J. Garradd.  0.6-m f/8.1 reflector
        + CCD.
    918 Badlands Observatory, Quinn.  Observer R. Dyvig.  0.66-m f/4.8 reflector
        + CCD.
    
    Orbital elements:
    2000 WN10
    Epoch 2000 Nov. 12.0 TT = JDT 2451860.5                 Spahr
    M 101.99297              (2000.0)            P               Q
    n   0.98221774     Peri.  225.18632     +0.23654099     +0.91660317
    a   1.0022995      Node    61.08408     -0.75471887     +0.38225294
    e   0.3005441      Incl.   21.60595     -0.61192139     -0.11713805
    P   1.00           H   20.7           G   0.15
    From 23 observations 2000 Nov. 20-24.
    
    Ephemeris:
    2000 WN10                a,e,i = 1.00, 0.30, 22                  q = 0.7011
    Date    TT    R. A. (2000) Decl.     Delta      r     Elong.  Phase     V
    2000 11 22    05 51.31   +31 39.0    0.213    1.178   150.8    24.2    18.8
    2000 11 27    05 17.73   +37 51.8    0.222    1.196   158.1    17.9    18.8
    2000 12 02    04 41.79   +42 36.2    0.238    1.212   159.3    16.7    18.9
    2000 12 07    04 07.10   +45 44.1    0.261    1.226   154.9    20.0    19.2
    2000 12 12    03 36.84   +47 31.0    0.289    1.240   148.4    24.6    19.6
    2000 12 17    03 12.62   +48 21.9    0.321    1.252   141.7    29.1    20.0
    
    2000 12 27    02 42.27   +48 38.8    0.394    1.273   129.9    36.4    20.7
    2001 01 06    02 30.84   +48 22.7    0.473    1.288   120.2    41.3    21.2
    2001 01 16    02 31.83   +48 11.2    0.555    1.298   112.0    44.6    21.7
    2001 01 26    02 41.10   +48 11.7    0.635    1.303   105.0    46.9    22.1
    
    Gareth V. Williams           (C) Copyright 2000 MPC           M.P.E.C. 2000-W37
    

    Read MPEC 2000-W36 Read MPEC 2000-W38


    MPEC number:

    Enter an MPEC number in one of the following forms:

    • 1997-B01 (the full form)
    • J97B01 (the packed version of the full form)
    • B01 (the abbreviated form)